ASXGSA LXGB-GMTT

Flight info

Callsign ASXGSA
Flight time N/A
Altitude 9000
Route RIPRA DCT A2 DCT BARPA DCT 3543N00542W/N0264F080 DCT TAN
Aircraft TBM9/L-SDFGRWY/S

Departure

Time 2026-05-05 08:57
Airport Gibraltar Airport (LXGB)

Arrival

Time N/A
Airport Tangier Ibn Battuta Airport (GMTT)
Time Latitude Longitude Altitude Speed Heading
2026-05-05 08:47 36.15290 -5.34364 11 ft 0 kts 316°
2026-05-05 08:54 36.15253 -5.34391 10 ft 9 kts 176°
2026-05-05 08:54 36.15240 -5.34307 10 ft 9 kts 90°
2026-05-05 08:55 36.15238 -5.34248 11 ft 17 kts 128°
2026-05-05 08:55 36.15232 -5.34240 11 ft 0 kts 136°
2026-05-05 08:56 36.15221 -5.34233 11 ft 11 kts 175°
2026-05-05 08:56 36.15145 -5.34292 10 ft 7 kts 267°
2026-05-05 08:56 36.15142 -5.34372 10 ft 33 kts 265°
2026-05-05 08:56 36.15120 -5.34855 51 ft 76 kts 260°
2026-05-05 08:57 36.15090 -5.35527 369 ft 82 kts 265°
2026-05-05 08:57 36.15079 -5.36316 640 ft 104 kts 271°
2026-05-05 08:57 36.14919 -5.37270 980 ft 121 kts 234°
2026-05-05 08:57 36.14184 -5.37851 1425 ft 139 kts 201°
2026-05-05 08:58 36.13230 -5.38233 1862 ft 151 kts 204°
2026-05-05 08:58 36.12164 -5.38673 2091 ft 175 kts 202°
2026-05-05 08:58 36.11026 -5.39129 2754 ft 167 kts 202°
2026-05-05 08:58 36.09887 -5.39614 3201 ft 176 kts 202°
2026-05-05 08:59 36.08596 -5.39692 3463 ft 201 kts 165°
2026-05-05 08:59 36.07609 -5.38695 4374 ft 165 kts 124°
2026-05-05 08:59 36.07106 -5.37604 5140 ft 142 kts 120°
2026-05-05 08:59 36.07121 -5.36333 5206 ft 146 kts 47°
2026-05-05 09:00 36.07820 -5.35186 4901 ft 199 kts 52°
2026-05-05 09:00 36.08589 -5.33614 4499 ft 210 kts 65°
2026-05-05 09:00 36.09053 -5.32333 4196 ft 138 kts 52°
2026-05-05 09:00 36.09577 -5.31405 3720 ft 119 kts 50°
2026-05-05 09:01 36.10010 -5.30572 3124 ft 119 kts 52°
2026-05-05 09:01 36.10397 -5.29717 2687 ft 107 kts 52°
2026-05-05 09:01 36.10846 -5.29005 2503 ft 97 kts 28°
2026-05-05 09:01 36.11352 -5.28551 2259 ft 88 kts 26°
2026-05-05 09:02 36.11876 -5.28132 1935 ft 90 kts 15°
2026-05-05 09:02 36.12526 -5.27916 1769 ft 105 kts
2026-05-05 09:02 36.13260 -5.27720 1448 ft 113 kts
2026-05-05 09:02 36.14044 -5.27524 1125 ft 113 kts
2026-05-05 09:03 36.14726 -5.27661 1061 ft 94 kts 319°
2026-05-05 09:03 36.15187 -5.28126 1103 ft 81 kts 311°
2026-05-05 09:03 36.15485 -5.28674 1093 ft 72 kts 277°
2026-05-05 09:03 36.15378 -5.29416 857 ft 104 kts 261°
2026-05-05 09:04 36.15302 -5.30261 679 ft 93 kts 265°
2026-05-05 09:04 36.15265 -5.31042 570 ft 93 kts 264°
2026-05-05 09:04 36.15241 -5.31894 419 ft 97 kts 265°
2026-05-05 09:04 36.15215 -5.32761 323 ft 101 kts 260°
2026-05-05 09:05 36.15169 -5.33640 123 ft 101 kts 263°
2026-05-05 09:05 36.15143 -5.34465 16 ft 86 kts 263°
2026-05-05 09:05 36.15119 -5.34977 18 ft 28 kts 264°
2026-05-05 09:05 36.15120 -5.35146 18 ft 6 kts 179°
2026-05-05 09:06 36.15124 -5.35096 18 ft 12 kts 82°
2026-05-05 09:06 36.15117 -5.34901 18 ft 29 kts 85°
2026-05-05 09:06 36.15115 -5.34795 17 ft 0 kts 89°
2026-05-05 09:06 36.15133 -5.34720 15 ft 23 kts 68°
2026-05-05 09:07 36.15206 -5.34682 16 ft 9 kts 20°
2026-05-05 09:07 36.15228 -5.34570 14 ft 18 kts 88°
2026-05-05 09:07 36.15241 -5.34447 10 ft 3 kts 21°
2026-05-05 09:07 36.15290 -5.34426 11 ft 3 kts 42°
2026-05-05 09:08 36.15291 -5.34410 11 ft 0 kts 103°
2026-05-05 09:09 36.15276 -5.34390 10 ft 8 kts 184°
2026-05-05 09:09 36.15239 -5.34393 9 ft 5 kts 120°
2026-05-05 09:09 36.15241 -5.34288 10 ft 13 kts 88°
2026-05-05 09:09 36.15235 -5.34240 11 ft 0 kts 138°
2026-05-05 09:10 36.15174 -5.34232 11 ft 15 kts 180°
2026-05-05 09:10 36.15143 -5.34327 10 ft 25 kts 267°
2026-05-05 09:10 36.15128 -5.34730 16 ft 67 kts 268°
2026-05-05 09:11 36.15135 -5.35332 169 ft 72 kts 258°
2026-05-05 09:11 36.15065 -5.36112 384 ft 94 kts 262°
2026-05-05 09:11 36.14991 -5.37026 647 ft 119 kts 261°
2026-05-05 09:11 36.14729 -5.37968 1193 ft 121 kts 227°
2026-05-05 09:12 36.13791 -5.38086 1401 ft 160 kts 173°
2026-05-05 09:12 36.12718 -5.37827 2064 ft 149 kts 173°
2026-05-05 09:12 36.11625 -5.37538 2315 ft 172 kts 175°
2026-05-05 09:12 36.10578 -5.36783 2751 ft 187 kts 127°
2026-05-05 09:13 36.10263 -5.35174 3066 ft 197 kts 85°
2026-05-05 09:13 36.10334 -5.33463 3385 ft 209 kts 86°
2026-05-05 09:13 36.10429 -5.31571 3396 ft 230 kts 84°
2026-05-05 09:13 36.10516 -5.29583 3644 ft 236 kts 84°
2026-05-05 09:14 36.10572 -5.27527 3883 ft 239 kts 86°
2026-05-05 09:14 36.10600 -5.25459 4156 ft 238 kts 86°
2026-05-05 09:14 36.11046 -5.23575 4270 ft 227 kts 54°
2026-05-05 09:14 36.12108 -5.22524 4384 ft 169 kts
2026-05-05 09:15 36.13242 -5.22384 3687 ft 167 kts
2026-05-05 09:15 36.14201 -5.22276 3584 ft 114 kts
2026-05-05 09:15 36.14917 -5.22421 3366 ft 102 kts 325°
2026-05-05 09:15 36.15415 -5.23053 3040 ft 114 kts 299°
2026-05-05 09:16 36.15686 -5.23940 2576 ft 103 kts 278°
2026-05-05 09:16 36.15576 -5.24757 2125 ft 92 kts 261°
2026-05-05 09:16 36.15463 -5.25502 1749 ft 78 kts 266°
2026-05-05 09:16 36.15388 -5.26204 1478 ft 90 kts 269°
2026-05-05 09:17 36.15347 -5.26993 1349 ft 91 kts 271°
2026-05-05 09:17 36.15324 -5.27774 1207 ft 90 kts 271°
2026-05-05 09:17 36.15345 -5.28552 929 ft 81 kts 272°
2026-05-05 09:17 36.15351 -5.29178 691 ft 68 kts 267°
2026-05-05 09:18 36.15388 -5.29950 248 ft 98 kts 264°
2026-05-05 09:18 36.15343 -5.30758 153 ft 89 kts 261°
2026-05-05 09:18 36.15299 -5.31451 82 ft 79 kts 260°
2026-05-05 09:18 36.15298 -5.31466 69 ft 80 kts 260°
2026-05-05 09:19 36.15282 -5.31741 3 ft 81 kts 260°
2026-05-05 09:19 36.15250 -5.32252 2 ft 9 kts 266°
2026-05-05 09:19 36.15246 -5.32306 2 ft 9 kts 266°
2026-05-05 09:19 36.15239 -5.32382 2 ft 9 kts 262°
2026-05-05 09:20 36.15290 -5.34364 2 ft 1 kts 316°
2026-05-05 09:22 36.15279 -5.34389 11 ft 11 kts 194°
2026-05-05 09:22 36.15239 -5.34328 9 ft 19 kts 87°
2026-05-05 09:22 36.15148 -5.34280 10 ft 29 kts 263°
2026-05-05 09:22 36.15123 -5.34782 52 ft 83 kts 262°
2026-05-05 09:23 36.15036 -5.35645 258 ft 115 kts 258°
2026-05-05 09:23 36.14707 -5.36709 499 ft 152 kts 239°
2026-05-05 09:23 36.14211 -5.37910 789 ft 141 kts 261°
2026-05-05 09:23 36.14162 -5.37569 957 ft 108 kts 98°
2026-05-05 09:24 36.14727 -5.36977 487 ft 126 kts 28°
2026-05-05 09:24 36.15109 -5.36133 120 ft 109 kts 98°
2026-05-05 09:24 36.15106 -5.35349 18 ft 72 kts 88°